Location: Street
(51.1247°N, 2.7429°W)
Time: 04:21:09
(UTC+00:00)

Transit 2A Rocket - Pass Details

Date: 26 November 2020
Orbit: 592 x 911 km, 66.7° (Epoch: 16 January)

Event Time Altitude Azimuth Distance (km) Brightness Sun altitude
Exits shadow 05:43:32 21° 326° (NW) 1,751 6.5 -18.5°
Maximum altitude 05:44:08 22° 335° (NNW) 1,725 6.5 -18.4°
Drops below altitude 10° 05:48:14 10° 25° (NNE) 2,321 7.7 -17.8°
Sets 05:51:06 0° 41° (NE) 3,186 8.6 -17.3°
